Location: Home
(42.5358°N, 72.7383°W)
Time: 19:05:22
(UTC-05:00)

Explorer 7 - Pass Details

Date: 02 December 2021
Orbit: 483 x 674 km, 50.3° (Epoch: 23 January)

Event Time Altitude Azimuth Distance (km) Brightness Sun altitude
Rises 08:14:11 0° 278° (W) 2,737 9.9 9.8°
Reaches altitude 10° 08:16:43 10° 290° (WNW) 1,806 8.9 10.2°
Maximum altitude 08:20:17 28° 350° (N) 999 7.8 10.7°
Drops below altitude 10° 08:23:43 10° 52° (NE) 1,723 9.5 11.1°
Sets 08:26:05 0° 64° (ENE) 2,585 10.5 11.4°
